OE2SWM Weather Reports


time (UTC)temp
C
wind
direction
speed
KPH
gust
KPH
rain 1hr
cm
rain 24hr
cm
rain mn
cm
humidity
%
barometer
mb
20260506112000 20 0 0.0 0.0 0.00 0.00 0.00 50 963.0
20260506111000 18 0 0.0 0.0 0.00 0.00 0.00 51 963.0
20260506110000 18 0 0.0 0.0 0.00 0.00 0.00 52 963.0
20260506105000 18 0 0.0 0.0 0.00 0.00 0.00 54 963.0
20260506104000 16 0 0.0 0.0 0.00 0.00 0.00 57 963.0
20260506103000 16 0 0.0 0.0 0.00 0.00 0.00 58 963.0
20260506102000 15 0 0.0 0.0 0.00 0.00 0.00 59 964.0
20260506101000 15 0 0.0 0.0 0.00 0.00 0.00 64 964.0
20260506100000 13 0 0.0 0.0 0.00 0.00 0.00 65 964.0
20260506095000 15 0 0.0 0.0 0.00 0.00 0.00 65 964.0
20260506094000 13 0 0.0 0.0 0.00 0.00 0.00 69 964.0
20260506093000 12 0 0.0 0.0 0.00 0.00 0.00 69 964.0
20260506092000 12 0 0.0 0.0 0.00 0.00 0.00 70 964.0
20260506091000 11 0 0.0 0.0 0.00 0.00 0.00 71 964.0
20260506090000 12 0 0.0 0.0 0.00 0.00 0.00 71 964.0
20260506085000 12 0 0.0 0.0 0.00 0.00 0.00 70 964.0
20260506084000 11 0 0.0 0.0 0.00 0.00 0.00 73 964.0
20260506083000 11 0 0.0 0.0 0.00 0.00 0.00 74 964.0
20260506082000 10 0 0.0 0.0 0.00 0.00 0.00 74 964.0
20260506081000 11 0 0.0 0.0 0.00 0.00 0.00 73 964.0
20260506073000 10 0 0.0 0.0 0.00 0.00 0.00 79 965.0
20260506072000 10 0 0.0 0.0 0.00 0.00 0.00 78 964.0
20260506071000 10 0 0.0 0.0 0.00 0.00 0.00 77 965.0
20260506062000 10 0 0.0 0.0 0.00 0.00 0.00 76 965.0
20260506061000 10 0 0.0 0.0 0.00 0.00 0.00 76 965.0
20260506051000 11 0 0.0 0.0 0.00 0.00 0.00 72 965.0
20260506045000 13 0 0.0 0.0 0.00 0.00 0.00 60 965.0
20260506044000 10 0 0.0 0.0 0.00 0.00 0.00 79 965.0
20260506043000 3 0 0.0 0.0 0.00 0.00 0.00 92 965.0
20260506042000 5 0 0.0 0.0 0.00 0.00 0.00 87 965.0
20260506041000 2 0 0.0 0.0 0.00 0.00 0.00 92 965.0
20260506040000 2 0 0.0 0.0 0.00 0.00 0.00 94 965.0
20260506035000 2 0 0.0 0.0 0.00 0.00 0.00 94 965.0
20260506034000 2 0 0.0 0.0 0.00 0.00 0.00 96 966.0
20260506033000 2 0 0.0 0.0 0.00 0.00 0.00 95 966.0
20260506032000 2 0 0.0 0.0 0.00 0.00 0.00 94 966.0
20260506031000 2 0 0.0 0.0 0.00 0.00 0.00 94 966.0
20260506030000 2 0 0.0 0.0 0.00 0.00 0.00 93 965.0
20260506025000 2 0 0.0 0.0 0.00 0.00 0.00 94 966.0
20260506024000 2 0 0.0 0.0 0.00 0.00 0.00 95 966.0
20260506023000 2 0 0.0 0.0 0.00 0.00 0.00 93 966.0
20260506022000 2 0 0.0 0.0 0.00 0.00 0.00 91 966.0
20260506021000 2 0 0.0 0.0 0.00 0.00 0.00 90 966.0
20260506020000 3 0 0.0 0.0 0.00 0.00 0.00 89 966.0
20260506015000 3 0 0.0 0.0 0.00 0.00 0.00 90 966.0
20260506014000 3 0 0.0 0.0 0.00 0.00 0.00 93 966.0
20260506013000 3 0 0.0 0.0 0.00 0.00 0.00 91 966.0
20260506012000 3 0 0.0 0.0 0.00 0.00 0.00 89 966.0
20260506011000 3 0 0.0 0.0 0.00 0.00 0.00 91 966.0
20260506010000 3 0 0.0 0.0 0.00 0.00 0.00 92 966.0
20260506005000 5 0 0.0 0.0 0.00 0.00 0.00 86 966.0
20260506004000 5 0 0.0 0.0 0.00 0.00 0.00 88 966.0
20260506003000 5 0 0.0 0.0 0.00 0.00 0.00 92 965.0
20260506002000 5 0 0.0 0.0 0.00 0.00 0.00 87 965.0
20260506001000 5 0 0.0 0.0 0.00 0.00 0.00 87 965.0
20260506000000 5 0 0.0 0.0 0.00 0.00 0.00 89 966.0
20260505235000 5 0 0.0 0.0 0.00 0.00 0.00 88 966.0
20260505234000 5 0 0.0 0.0 0.00 0.00 0.00 85 965.0
20260505233000 5 0 0.0 0.0 0.00 0.00 0.00 87 966.0
20260505232000 5 0 0.0 0.0 0.00 0.00 0.00 84 965.0
20260505231000 5 0 0.0 0.0 0.00 0.00 0.00 84 965.0
20260505230000 5 0 0.0 0.0 0.00 0.00 0.00 84 965.0
20260505225000 6 0 0.0 0.0 0.00 0.00 0.00 83 965.0
20260505224000 6 0 0.0 0.0 0.00 0.00 0.00 84 966.0
20260505223000 6 0 0.0 0.0 0.00 0.00 0.00 80 966.0
20260505222000 7 0 0.0 0.0 0.00 0.00 0.00 81 965.0
20260505221000 7 0 0.0 0.0 0.00 0.00 0.00 80 965.0
20260505220000 7 0 0.0 0.0 0.00 0.00 0.00 79 966.0
20260505215000 7 0 0.0 0.0 0.00 0.00 0.00 80 966.0
20260505214000 7 0 0.0 0.0 0.00 0.00 0.00 80 965.0
20260505213000 7 0 0.0 0.0 0.00 0.00 0.00 79 965.0
20260505212000 8 0 0.0 0.0 0.00 0.00 0.00 78 966.0
20260505211000 8 0 0.0 0.0 0.00 0.00 0.00 79 965.0
20260505210000 8 0 0.0 0.0 0.00 0.00 0.00 78 965.0
20260505205000 8 0 0.0 0.0 0.00 0.00 0.00 75 965.0
20260505204000 10 0 0.0 0.0 0.00 0.00 0.00 74 965.0
20260505203000 10 0 0.0 0.0 0.00 0.00 0.00 73 965.0
20260505202000 10 0 0.0 0.0 0.00 0.00 0.00 71 965.0
20260505201000 10 0 0.0 0.0 0.00 0.00 0.00 69 965.0
20260505200000 11 0 0.0 0.0 0.00 0.00 0.00 67 965.0
20260505195000 12 0 0.0 0.0 0.00 0.00 0.00 64 965.0
20260505194000 12 0 0.0 0.0 0.00 0.00 0.00 63 965.0
20260505193000 12 0 0.0 0.0 0.00 0.00 0.00 62 964.0
20260505192000 12 0 0.0 0.0 0.00 0.00 0.00 61 964.0
20260505191000 12 0 0.0 0.0 0.00 0.00 0.00 62 964.0
20260505190000 12 0 0.0 0.0 0.00 0.00 0.00 62 964.0
20260505185000 13 0 0.0 0.0 0.00 0.00 0.00 61 964.0
20260505184000 13 0 0.0 0.0 0.00 0.00 0.00 60 964.0
20260505183000 13 0 0.0 0.0 0.00 0.00 0.00 60 964.0
20260505182000 13 0 0.0 0.0 0.00 0.00 0.00 60 964.0
20260505181000 15 0 0.0 0.0 0.00 0.00 0.00 58 964.0
20260505180000 15 0 0.0 0.0 0.00 0.00 0.00 57 964.0
20260505175000 15 0 0.0 0.0 0.00 0.00 0.00 56 964.0
20260505174000 15 0 0.0 0.0 0.00 0.00 0.00 56 964.0
20260505173000 15 0 0.0 0.0 0.00 0.00 0.00 53 964.0
20260505172000 16 0 0.0 0.0 0.00 0.00 0.00 51 964.0
20260505171000 17 0 0.0 0.0 0.00 0.00 0.00 51 964.0
20260505170000 16 0 0.0 0.0 0.00 0.00 0.00 53 964.0
20260505165000 16 0 0.0 0.0 0.00 0.00 0.00 53 964.0
20260505164000 16 0 0.0 0.0 0.00 0.00 0.00 53 964.0
20260505163000 16 0 0.0 0.0 0.00 0.00 0.00 53 964.0
20260505162000 16 0 0.0 0.0 0.00 0.00 0.00 52 964.0
20260505161000 17 0 0.0 0.0 0.00 0.00 0.00 50 964.0
20260505153000 17 0 0.0 0.0 0.00 0.00 0.00 51 964.0
20260505152000 17 0 0.0 0.0 0.00 0.00 0.00 51 964.0
20260505151000 17 0 0.0 0.0 0.00 0.00 0.00 51 964.0
20260505125000 20 0 0.0 0.0 0.00 0.00 0.00 44 964.0
20260505124000 20 0 0.0 0.0 0.00 0.00 0.00 43 964.0
20260505123000 22 0 0.0 0.0 0.00 0.00 0.00 41 964.0
20260505122000 22 0 0.0 0.0 0.00 0.00 0.00 42 964.0
20260505121000 22 0 0.0 0.0 0.00 0.00 0.00 42 964.0
20260505120000 21 0 0.0 0.0 0.00 0.00 0.00 44 964.0
20260505115000 21 0 0.0 0.0 0.00 0.00 0.00 43 964.0
20260505114000 21 0 0.0 0.0 0.00 0.00 0.00 45 964.0
20260505113000 20 0 0.0 0.0 0.00 0.00 0.00 43 964.0